WGS F8 (USA 272)

Last updated on June 27, 2019, 3:44 a.m. UTC

1 41879U 16075A   19177.81275750 -.00000196  00000-0  00000+0 0  9994
2 41879   0.0363  63.6698 0000228 115.6719 177.6950  1.00267620  9382
UTC
Height (km)
Latitude
Longitude
Inclination
Orbital Period
UTC large
Height (km)
Speed (km/s)
/
Latitude / Longitude
Inclination (degrees)
Orbital Period (minutes)
Azimuth
Elevation
Range (km)
Doppler Factor
iOS Compass Heading
iOS Angle

Next 30 passes for location: Hong Kong

Rise time Rise Azimuth (degrees) Set time Set Azimuth (degrees) Duration Max altitude (degrees)

No matching passes for this satellites